sat.trackr.live / text

‹ back to catalog

CENTAURI-1

NORAD 43809 · 2018-099BD

PAYLOAD ACTIVE UNKNOWN

§ Identity

Operator
Country
AUS
Launch date
2018-12-03
Launch site
AFWTR
Launch vehicle
Mass (kg)
RCS (m²)

External: N2YO · Heavens-Above · Gunter

§ Orbital elements

Epoch: 2026-09-19T09:54:09.695808Z

Period
94.91 min
Inclination
97.4126°
Eccentricity
0.0013871
Mean motion
15.17171366 rev/d
Perigee alt
504.8 km
Apogee alt
524.0 km
Semi-major
6,892.5 km
B*
1.8230e-4
RAAN
312.1113°
Arg perigee
7.5338°
Mean anomaly
352.6101°
Rev number
42,678

§ Raw data

CENTAURI-11 43809U 18099BD  26262.41261222  .00003561  00000+0  18230-3 0  99902 43809  97.4126 312.1113 0013871   7.5338 352.6101 15.17171366426786

JSON: /api/v1/satellites/43809 · /tle

For live sub-satellite position, see the globe view (requires WebGL).

§ Visibility from observer

Set your observer location to see the next 7 days of passes ≥ 10°. The values pass through the URL so the page stays shareable.

No JS? Fill the form by hand. The geolocation button needs JavaScript.

§ Radio — SatNOGS DB

ModeDescriptionDownlinkUplink
FSK FSK9k6 TLM 400.625 MHz

1 transmitter · refreshed weekly from db.satnogs.org